Вернуться в каталог

CZ-6A DEB

АктивенSSO
NORAD 54277·DEBRIS·🇨🇳 China

Запущен Nov 11, 2022 с Taiyuan Satellite Launch Center

Loading…

Ближайшие Пролёты (ближайшие 24 часа)

TLE

СвежийSource: Space-Track

Эпоха: Sep 14, 2026, 12:29 UTC

1 54277U 22151U   26257.52020108  .00000133  00000-0  84569-4 0  9999
2 54277  98.8200 282.0885 0046560 298.9041  60.7468 14.18988815198249

Отслеживайте CZ-6A DEB в реальном времени с AllMySat

Download on the App Store